Tillbaka till svenska Fidonet
English   Information   Debug  
FILM   0/18
FNEWS_PUBLISH   4461
FN_SYSOP   41736
FN_SYSOP_OLD1   71952
FTP_FIDO   0/2
FTSC_PUBLIC   0/13627
FUNNY   0/4886
GENEALOGY.EUR   0/71
GET_INFO   105
GOLDED   0/408
HAM   0/16084
HOLYSMOKE   0/6791
HOT_SITES   0/1
HTMLEDIT   0/71
HUB203   466
HUB_100   264
HUB_400   39
HUMOR   0/29
IC   0/2851
INTERNET   0/424
INTERUSER   0/3
IP_CONNECT   719
JAMNNTPD   0/233
JAMTLAND   0/47
KATTY_KORNER   0/41
LAN   0/16
LINUX-USER   0/19
LINUXHELP   0/1155
LINUX   0/22120
LINUX_BBS   0/957
mail   18.68
mail_fore_ok   249
MENSA   0/341
MODERATOR   0/102
MONTE   0/992
MOSCOW_OKLAHOMA   0/1245
MUFFIN   0/783
MUSIC   0/321
N203_STAT   932
N203_SYSCHAT   313
NET203   321
NET204   69
NET_DEV   0/10
NORD.ADMIN   0/101
NORD.CHAT   0/2572
NORD.FIDONET   189
NORD.HARDWARE   0/28
NORD.KULTUR   0/114
NORD.PROG   0/32
NORD.SOFTWARE   0/88
NORD.TEKNIK   0/58
NORD   0/453
OCCULT_CHAT   0/93
OS2BBS   0/787
OS2DOSBBS   0/580
OS2HW   0/42
OS2INET   0/37
OS2LAN   0/134
OS2PROG   0/36
OS2REXX   0/113
OS2USER-L   207
OS2   0/4794
OSDEBATE   0/18996
PASCAL   0/490
PERL   0/457
PHP   0/45
POINTS   0/405
POLITICS   0/29554
POL_INC   0/14731
PSION   103
R20_ADMIN   1124
R20_AMATORRADIO   0/2
R20_BEST_OF_FIDONET   13
R20_CHAT   0/893
R20_DEPP   0/3
R20_DEV   399
R20_ECHO2   1379
R20_ECHOPRES   0/35
R20_ESTAT   0/719
R20_FIDONETPROG...
...RAM.MYPOINT
  0/2
R20_FIDONETPROGRAM   0/22
R20_FIDONET   0/248
R20_FILEFIND   0/24
R20_FILEFOUND   0/22
R20_HIFI   0/3
R20_INFO2   3268
R20_INTERNET   0/12940
R20_INTRESSE   0/60
R20_INTR_KOM   0/99
R20_KANDIDAT.CHAT   42
R20_KANDIDAT   28
R20_KOM_DEV   112
R20_KONTROLL   0/13318
R20_KORSET   0/18
R20_LOKALTRAFIK   0/24
R20_MODERATOR   0/1852
R20_NC   76
R20_NET200   245
R20_NETWORK.OTH...
...ERNETS
  0/13
R20_OPERATIVSYS...
...TEM.LINUX
  0/44
R20_PROGRAMVAROR   0/1
R20_REC2NEC   534
R20_SFOSM   0/341
R20_SF   0/108
R20_SPRAK.ENGLISH   0/1
R20_SQUISH   107
R20_TEST   2
R20_WORST_OF_FIDONET   12
RAR   0/9
RA_MULTI   106
RA_UTIL   0/162
REGCON.EUR   0/2056
REGCON   0/13
SCIENCE   0/1206
SF   0/239
SHAREWARE_SUPPORT   0/5146
SHAREWRE   0/14
SIMPSONS   0/169
STATS_OLD1   0/2539.065
STATS_OLD2   0/2530
STATS_OLD3   0/2395.095
STATS_OLD4   0/1692.25
SURVIVOR   0/495
SYSOPS_CORNER   0/3
SYSOP   0/84
TAGLINES   0/112
TEAMOS2   0/4530
TECH   0/2617
TEST.444   0/105
TRAPDOOR   0/19
TREK   0/755
TUB   0/290
UFO   0/40
UNIX   0/1316
USA_EURLINK   0/102
USR_MODEMS   0/1
VATICAN   0/2740
VIETNAM_VETS   0/14
VIRUS   0/378
VIRUS_INFO   0/201
VISUAL_BASIC   0/473
WHITEHOUSE   0/5187
WIN2000   0/101
WIN32   0/30
WIN95   0/4290
WIN95_OLD1   0/70272
WINDOWS   0/1517
WWB_SYSOP   0/419
WWB_TECH   0/810
ZCC-PUBLIC   0/1
ZEC   4

 
4DOS   0/134
ABORTION   0/7
ALASKA_CHAT   0/506
ALLFIX_FILE   0/1313
ALLFIX_FILE_OLD1   0/7997
ALT_DOS   0/152
AMATEUR_RADIO   0/1039
AMIGASALE   0/14
AMIGA   0/331
AMIGA_INT   0/1
AMIGA_PROG   0/20
AMIGA_SYSOP   0/26
ANIME   0/15
ARGUS   0/924
ASCII_ART   0/340
ASIAN_LINK   0/651
ASTRONOMY   0/417
AUDIO   0/92
AUTOMOBILE_RACING   0/105
BABYLON5   0/17862
BAG   135
BATPOWER   0/361
BBBS.ENGLISH   0/382
BBSLAW   0/109
BBS_ADS   0/5290
BBS_INTERNET   0/507
BIBLE   0/3563
BINKD   0/1119
BINKLEY   0/215
BLUEWAVE   0/2173
CABLE_MODEMS   0/25
CBM   0/46
CDRECORD   0/66
CDROM   0/20
CLASSIC_COMPUTER   0/378
COMICS   0/15
CONSPRCY   0/899
COOKING   33710
COOKING_OLD1   0/24719
COOKING_OLD2   0/40862
COOKING_OLD3   0/37489
COOKING_OLD4   0/35496
COOKING_OLD5   9370
C_ECHO   0/189
C_PLUSPLUS   0/31
DIRTY_DOZEN   0/201
DOORGAMES   0/2065
DOS_INTERNET   0/196
duplikat   6002
ECHOLIST   0/18295
EC_SUPPORT   0/318
ELECTRONICS   0/359
ELEKTRONIK.GER   1534
ENET.LINGUISTIC   0/13
ENET.POLITICS   0/4
ENET.SOFT   0/11701
ENET.SYSOP   33963
ENET.TALKS   0/32
ENGLISH_TUTOR   0/2000
EVOLUTION   0/1335
FDECHO   0/217
FDN_ANNOUNCE   0/7068
FIDONEWS   24191
FIDONEWS_OLD1   0/49742
FIDONEWS_OLD2   0/35949
FIDONEWS_OLD3   0/30874
FIDONEWS_OLD4   0/37224
FIDO_SYSOP   12852
FIDO_UTIL   0/180
FILEFIND   0/209
FILEGATE   0/212
Möte HAM, 16084 texter
 lista första sista föregående nästa
Text 4523, 908 rader
Skriven 2011-06-03 00:01:32 av Amsat List (1:323/120.0)
Ärende: [keps]  orb11153.amsa
=============================
[keps]  orb11153.amsa

Return-Path: <keps-bounces@amsat.org>
X-Rcpt: craig.healy@chowda.com
X-UIDL: 1307073580.211

SB KEPS @ AMSAT  $ORB11153.O
Orbital Elements  11153.OSCAR

HR AMSAT ORBITAL ELEMENTS FOR OSCAR SATELLITES
FROM WA5QGD FORT WORTH,TX June 2, 2011
Send Subscribe/unsubscribe to KEPS at http://www.amsat.org/mailman/listinfo/kep
BID: ORB11153.O
TO ALL RADIO AMATEURS BT

Satellite: AO-07
Catalog number: 07530
Epoch time:      11153.63138788
Element set:      93
Inclination:      101.3911 deg
RA of node:       160.7465 deg
Eccentricity:    0.0011729
Arg of perigee:   309.3328 deg
Mean anomaly:     050.6702 deg
Mean motion:   12.53582544 rev/day
Decay rate:       -2.7e-07 rev/day^2
Epoch rev:           67236
Checksum:              286

Satellite: FO-29
Catalog number: 24278
Epoch time:      11152.96884108
Element set:    0598
Inclination:      098.5405 deg
RA of node:       299.1454 deg
Eccentricity:    0.0349763
Arg of perigee:   296.7563 deg
Mean anomaly:     059.8187 deg
Mean motion:   13.52961795 rev/day
Decay rate:       -6.0e-08 rev/day^2
Epoch rev:           73040
Checksum:              364

Satellite: SO-33
Catalog number: 25509
Epoch time:      11153.76809957
Element set:     980
Inclination:      031.4329 deg
RA of node:       325.8681 deg
Eccentricity:    0.0353006
Arg of perigee:   115.5923 deg
Mean anomaly:     248.1610 deg
Mean motion:   14.28408775 rev/day
Decay rate:       5.10e-06 rev/day^2
Epoch rev:           65821
Checksum:              310

Satellite: RS-22
Catalog number: 27939
Epoch time:      11153.93446165
Element set:     315
Inclination:      097.8476 deg
RA of node:       008.6133 deg
Eccentricity:    0.0014368
Arg of perigee:   034.5079 deg
Mean anomaly:     325.7065 deg
Mean motion:   14.63589641 rev/day
Decay rate:       3.43e-06 rev/day^2
Epoch rev:           41025
Checksum:              311

Satellite: VO-52
Catalog number: 28650
Epoch time:      11152.70170881
Element set:    0810
Inclination:      097.6417 deg
RA of node:       196.5244 deg
Eccentricity:    0.0026140
Arg of perigee:   210.4663 deg
Mean anomaly:     149.5015 deg
Mean motion:   14.82069412 rev/day
Decay rate:      1.020e-05 rev/day^2
Epoch rev:           32845
Checksum:              275

Satellite: SO-67
Catalog number: 35870
Epoch time:      11153.93974453
Element set:     896
Inclination:      097.2821 deg
RA of node:       197.7736 deg
Eccentricity:    0.0003913
Arg of perigee:   078.3698 deg
Mean anomaly:     014.9286 deg
Mean motion:   15.20745717 rev/day
Decay rate:      1.928e-05 rev/day^2
Epoch rev:            9477
Checksum:              365

Satellite: HO-68
Catalog number: 36122
Epoch time:      11153.87317568
Element set:     432
Inclination:      100.4155 deg
RA of node:       214.8998 deg
Eccentricity:    0.0007124
Arg of perigee:   258.3391 deg
Mean anomaly:     101.6917 deg
Mean motion:   13.16286502 rev/day
Decay rate:       -4.5e-07 rev/day^2
Epoch rev:            7035
Checksum:              290

/EX
SB KEPS @ AMSAT  $ORB11153.D
Orbital Elements  11153.MICROS

HR AMSAT ORBITAL ELEMENTS FOR THE MICROSATS
FROM WA5QGD FORT WORTH,TX June 2, 2011
Send Subscribe/unsubscribe to KEPS at http://www.amsat.org/mailman/listinfo/kep
BID: ORB11153.D
TO ALL RADIO AMATEURS BT

Satellite: UO-11
Catalog number: 14781
Epoch time:      11152.92683223
Element set:    0576
Inclination:      098.0064 deg
RA of node:       209.6843 deg
Eccentricity:    0.0008994
Arg of perigee:   181.0405 deg
Mean anomaly:     179.0791 deg
Mean motion:   14.79975227 rev/day
Decay rate:       4.62e-06 rev/day^2
Epoch rev:           46353
Checksum:              324

Satellite: AO-16
Catalog number: 20439
Epoch time:      11153.90699819
Element set:     200
Inclination:      098.3834 deg
RA of node:       104.0028 deg
Eccentricity:    0.0010251
Arg of perigee:   202.2883 deg
Mean anomaly:     157.7854 deg
Mean motion:   14.31922014 rev/day
Decay rate:        7.6e-07 rev/day^2
Epoch rev:           11557
Checksum:              280

Satellite: LO-19
Catalog number: 20442
Epoch time:      11152.94074042
Element set:    0129
Inclination:      098.3441 deg
RA of node:       107.4807 deg
Eccentricity:    0.0011423
Arg of perigee:   198.1105 deg
Mean anomaly:     161.9670 deg
Mean motion:   14.32147637 rev/day
Decay rate:        5.5e-07 rev/day^2
Epoch rev:           11561
Checksum:              269

Satellite: AO-27
Catalog number: 22825
Epoch time:      11152.88992893
Element set:    0837
Inclination:      098.5316 deg
RA of node:       097.6591 deg
Eccentricity:    0.0007998
Arg of perigee:   326.5634 deg
Mean anomaly:     033.5035 deg
Mean motion:   14.29348716 rev/day
Decay rate:       1.42e-06 rev/day^2
Epoch rev:           92200
Checksum:              337

Satellite: IO-26
Catalog number: 22826
Epoch time:      11153.94201449
Element set:     575
Inclination:      098.5253 deg
RA of node:       099.1691 deg
Eccentricity:    0.0008471
Arg of perigee:   318.0829 deg
Mean anomaly:     041.9702 deg
Mean motion:   14.29610850 rev/day
Decay rate:        7.3e-07 rev/day^2
Epoch rev:           92227
Checksum:              309

Satellite: GO-32
Catalog number: 25397
Epoch time:      11152.51557729
Element set:    0495
Inclination:      098.3235 deg
RA of node:       145.9158 deg
Eccentricity:    0.0001238
Arg of perigee:   010.1377 deg
Mean anomaly:     349.9822 deg
Mean motion:   14.23209936 rev/day
Decay rate:       1.11e-06 rev/day^2
Epoch rev:           66973
Checksum:              316

